Location: Allos
(44.2333°N, 6.6333°E)
Time: 15:55:06
(UTC+00:00)

Cosmos 2228 Rocket - Pass Details

Date: 29 April 2021
Orbit: 618 x 652 km, 82.5° (Epoch: 10 May)

Event Time Altitude Azimuth Distance (km) Brightness Sun altitude
Exits shadow 23:52:22 23° 316° (NW) 1,328 5.1 -30.8°
Drops below altitude 10° 23:54:49 10° 346° (NNW) 1,998 6.4 -30.7°
Sets 23:57:21 0° 358° (N) 2,913 7.6 -30.7°
